This demonstration page uses our WeatherBlox Daily Observations layout. Learn more.

40.92945, -100.16068

Hourly Observations for January 19, 2015

Temp ( °F °C ) Dew Point ( °F °C ) Humidity (%) Winds ( mph kmh ) Pressure ( in mb ) Visibility ( mi km ) Precip ( " mm )
12:15 am 00:15 Clear 30 -0.9 25 -3.7 82 82 W 7 11 30.09 1019 10 16.0934 N/A
12:35 am 00:35 Clear 31 -0.7 26 -3.5 82 82 WNW 5 7 30.09 1019 10 16.0934 N/A
12:55 am 00:55 Clear 31 -0.6 26 -3.1 83 83 WNW 8 13 30.06 1018 10 16.0934 N/A
1:15 am 01:15 Clear 32 -0.2 27 -2.7 83 83 WNW 6 9 30.06 1018 10 16.0934 N/A
1:35 am 01:35 Clear 32 0 27 -2.8 82 82 WNW 3 6 30.06 1018 10 16.0934 N/A
1:55 am 01:55 Clear 31 -0.6 26 -3.4 82 82 W 5 7 30.06 1018 10 16.0934 N/A
2:15 am 02:15 Clear 30 -1 26 -3.4 84 84 Calm 30.06 1018 10 16.0934 N/A
2:35 am 02:35 Clear 32 -0.2 27 -3 82 82 Calm 30.06 1018 10 16.0934 N/A
2:55 am 02:55 Clear 31 -0.8 26 -3.3 83 83 WNW 6 9 30.06 1018 10 16.0934 N/A
3:15 am 03:15 Clear 31 -0.8 27 -3 85 85 W 7 11 30.06 1018 10 16.0934 N/A
3:35 am 03:35 Clear 30 -1 27 -3 86 86 WNW 6 9 30.06 1018 10 16.0934 N/A
3:55 am 03:55 Clear 29 -1.5 26 -3.2 88 88 WNW 8 13 30.06 1018 10 16.0934 N/A
4:15 am 04:15 Partly Cloudy 30 -1.2 26 -3.1 87 87 WNW 8 13 30.03 1017 10 16.0934 N/A
4:35 am 04:35 Partly Cloudy 28 -2 26 -3.5 90 90 W 7 11 30.03 1017 10 16.0934 N/A
4:55 am 04:55 Clear 29 -1.7 26 -3.1 90 90 W 7 11 30.03 1017 10 16.0934 N/A
5:15 am 05:15 Clear 28 -2.5 25 -4.1 89 89 NW 6 9 30.03 1017 10 16.0934 N/A
5:35 am 05:35 Clear 30 -1.2 27 -2.6 90 90 NW 8 13 30.03 1017 10 16.0934 N/A
5:55 am 05:55 Clear 29 -1.6 26 -3.1 90 90 NW 9 15 30.03 1017 10 16.0934 N/A
6:15 am 06:15 Clear 30 -0.9 28 -2.2 91 91 NW 12 19 30.06 1018 10 16.0934 N/A
6:35 am 06:35 Clear 35 1.8 32 -0.1 87 87 WNW 17 28 30.03 1017 10 16.0934 N/A
6:55 am 06:55 Clear 36 2.4 32 -0.2 83 83 WNW 14 22 30.03 1017 10 16.0934 N/A
7:15 am 07:15 Clear 35 1.7 31 -0.5 86 86 WNW 13 20 30.03 1017 10 16.0934 N/A
7:35 am 07:35 Clear 35 1.7 31 -0.5 86 86 WNW 12 19 30.06 1018 10 16.0934 N/A
7:55 am 07:55 Clear 35 1.4 31 -0.5 87 87 WNW 12 19 30.06 1018 10 16.0934 N/A
8:15 am 08:15 Sunny 35 1.5 31 -0.3 88 88 WNW 14 22 30.06 1018 10 16.0934 N/A
8:35 am 08:35 Sunny 35 1.7 32 -0.1 88 88 WNW 9 15 30.06 1018 10 16.0934 N/A
8:55 am 08:55 Sunny 36 2 32 0 87 87 WNW 10 17 30.06 1018 10 16.0934 N/A
9:15 am 09:15 Sunny 36 2.2 32 0.1 86 86 WNW 9 15 30.06 1018 10 16.0934 N/A
9:35 am 09:35 Sunny 38 3.1 33 0.6 84 84 NW 12 19 30.09 1019 10 16.0934 N/A
9:55 am 09:55 Sunny 39 4.1 34 1.2 82 82 W 8 13 30.06 1018 10 16.0934 N/A
10:15 am 10:15 Sunny 41 5.2 35 1.8 79 79 WNW 8 13 30.06 1018 10 16.0934 N/A
10:35 am 10:35 Sunny 45 7.4 37 2.6 72 72 NW 8 13 30.03 1017 10 16.0934 N/A
10:55 am 10:55 Sunny 49 9.7 36 2.3 60 60 NNW 10 17 30 1016 10 16.0934 N/A
11:15 am 11:15 Sunny 53 11.6 32 0.1 45 45 NW 9 15 30.03 1017 10 16.0934 N/A
11:35 am 11:35 Sunny 54 12 32 -0.2 43 43 NNW 20 31 30.03 1017 10 16.0934 N/A
11:55 am 11:55 Sunny 54 12.2 32 0 43 43 NNW 15 24 30.03 1017 10 16.0934 N/A
12:15 pm 12:15 Sunny 55 12.7 31 -0.6 40 40 NNW 21 33 30.03 1017 10 16.0934 N/A
12:35 pm 12:35 Sunny 54 12.1 31 -0.8 41 41 NNW 18 30 30 1016 10 16.0934 N/A
12:55 pm 12:55 Sunny 55 12.7 31 -0.4 41 41 NNW 18 30 30 1016 10 16.0934 N/A
1:15 pm 13:15 Mostly Cloudy 57 14 30 -0.9 36 36 NNW 17 28 29.97 1015 10 16.0934 N/A
1:35 pm 13:35 Mostly Cloudy 55 13 30 -0.9 39 39 NW 16 26 30 1016 10 16.0934 N/A
1:55 pm 13:55 Mostly Cloudy 57 14.1 30 -1.1 35 35 NW 17 28 29.97 1015 10 16.0934 N/A
2:15 pm 14:15 Cloudy 55 13 31 -0.3 40 40 NW 20 31 30 1016 10 16.0934 N/A
2:35 pm 14:35 Cloudy 53 11.8 31 -0.4 43 43 NW 16 26 30 1016 10 16.0934 N/A
2:55 pm 14:55 Partly Cloudy 53 11.8 30 -0.9 42 42 NW 18 30 30 1016 10 16.0934 N/A
3:15 pm 15:15 Partly Cloudy 53 11.7 31 -0.3 44 44 NW 16 26 30 1016 10 16.0934 N/A
3:35 pm 15:35 Sunny 54 12.1 31 -0.6 42 42 NW 16 26 30 1016 10 16.0934 N/A
3:55 pm 15:55 Sunny 54 12 32 -0.1 44 44 WNW 13 20 30 1016 10 16.0934 N/A
4:15 pm 16:15 Partly Cloudy 54 12 32 0 44 44 WNW 12 19 30 1016 10 16.0934 N/A
4:35 pm 16:35 Partly Cloudy 52 11 32 0 47 47 WNW 9 15 30 1016 10 16.0934 N/A
4:55 pm 16:55 Sunny 50 10 32 0.1 51 51 WNW 8 13 30 1016 10 16.0934 N/A
5:15 pm 17:15 Sunny 47 8.6 31 -0.6 53 53 NW 12 19 30.03 1017 10 16.0934 N/A
5:35 pm 17:35 Sunny 43 5.9 29 -1.9 58 58 NW 9 15 30.06 1018 10 16.0934 N/A
5:55 pm 17:55 Clear 38 3.4 27 -3 63 63 NW 10 17 30.12 1020 10 16.0934 N/A
6:15 pm 18:15 Clear 37 2.7 27 -2.8 67 67 NW 10 17 30.12 1020 10 16.0934 N/A
6:35 pm 18:35 Clear 35 1.5 26 -3.2 71 71 NW 8 13 30.12 1020 10 16.0934 N/A
6:55 pm 18:55 Clear 33 0.3 26 -3.5 76 76 NW 8 13 30.15 1021 10 16.0934 N/A
7:15 pm 19:15 Clear 32 -0.1 26 -3.5 78 78 NW 8 13 30.15 1021 10 16.0934 N/A
7:35 pm 19:35 Clear 30 -1 25 -4 80 80 NW 7 11 30.15 1021 10 16.0934 N/A
7:55 pm 19:55 Clear 31 -0.5 26 -3.6 80 80 W 6 9 30.15 1021 10 16.0934 N/A
8:15 pm 20:15 Clear 31 -0.6 25 -3.9 79 79 W 7 11 30.15 1021 10 16.0934 N/A
8:35 pm 20:35 Clear 31 -0.3 26 -3.6 79 79 W 8 13 30.15 1021 10 16.0934 N/A
8:55 pm 20:55 Clear 32 -0.2 26 -3.5 79 79 W 6 9 30.15 1021 10 16.0934 N/A
9:15 pm 21:15 Clear 29 -1.5 25 -3.7 85 85 NW 9 15 30.12 1020 10 16.0934 N/A
9:35 pm 21:35 Clear 30 -1.1 26 -3.4 85 85 N 6 9 30.12 1020 10 16.0934 N/A
9:55 pm 21:55 Clear 31 -0.8 27 -2.8 86 86 W 9 15 30.15 1021 10 16.0934 N/A
10:15 pm 22:15 Clear 32 0 28 -2.5 83 83 WNW 7 11 30.15 1021 10 16.0934 N/A
10:35 pm 22:35 Clear 33 0.6 28 -2.5 80 80 W 9 15 30.12 1020 10 16.0934 N/A
10:55 pm 22:55 Clear 33 0.5 28 -2.5 81 81 W 10 17 30.12 1020 10 16.0934 N/A
11:15 pm 23:15 Clear 32 0.2 27 -2.7 81 81 WNW 9 15 30.15 1021 10 16.0934 N/A
11:35 pm 23:35 Clear 31 -0.3 26 -3.1 82 82 WNW 9 15 30.15 1021 10 16.0934 N/A
11:55 pm 23:55 Clear 31 -0.5 27 -2.9 84 84 WNW 10 17 30.15 1021 10 16.0934 N/A

Powered by AerisWeather